M I D A S
Marine Information and Data Acquisition System
Tripno 2302 of the Zeeleeuw from 2012-01-24 06:02:30 to 2012-01-24 13:43:15
Back to CruiseResearch ActivitiesStationsMapUnderway DataData graphs

EquipmentUnitsComments
TimeDGPSUTC
LatitudeDGPSDM.mWGS84
LongitudeDGPSDM.mWGS84
SpeedMeteo Stationm/sRelative wind speed
DirectionMeteo StationdegRelative wind direction
TemperatureMeteo Stationdeg CelciusAir temperature
PressureMeteo StationPaAtmospheric pressure
HumidityMeteo Station%Relative humidity
Missing or incorrect values are displayed as -999
Metereological data collected by the RV Zeeleeuw from 2012-01-24 05:52:43 to 2012-01-24 15:00:08
Time Latitude Longitude Speed Direction Temperature Pressure Humidity
2012-01-24 05:53 51°13.635 2°56.018 2.5 32 5.9 102060 39
2012-01-24 05:54 51°13.635 2°56.017 3.5 33 5.9 102060 38
2012-01-24 05:55 51°13.637 2°56.017 2.5 38 5.8 102060 37
2012-01-24 05:56 51°13.638 2°56.018 1.9 31 5.9 102060 36
2012-01-24 05:57 51°13.637 2°56.018 2.5 32 5.9 102060 36
2012-01-24 05:58 51°13.638 2°56.018 1.9 41 5.9 102060 37
2012-01-24 05:59 51°13.638 2°56.018 2 37 5.9 102060 36
2012-01-24 06:00 51°13.638 2°56.018 2.5 30 5.9 102060 38
2012-01-24 06:01 51°13.637 2°56.018 2.5 38 5.9 102070 36
2012-01-24 06:02 51°13.64 2°55.992 2 30 6 102070 39
2012-01-24 06:03 51°13.664 2°55.888 3.7 39 6.1 102070 40
2012-01-24 06:04 51°13.711 2°55.776 2.5 39 6.1 102070 37
2012-01-24 06:05 51°13.765 2°55.699 5 33 6.2 102060 39
2012-01-24 06:06 51°13.859 2°55.621 4.2 36 6.2 102060 39
2012-01-24 06:07 51°13.937 2°55.626 3.3 36 6.1 102060 39
2012-01-24 06:08 51°13.972 2°55.649 3.2 8 6.1 102070 38
2012-01-24 06:09 51°13.992 2°55.574 4.9 321 6.1 102060 37
2012-01-24 06:10 51°14.09 2°55.467 8 320 6 102060 39
2012-01-24 06:11 51°14.217 2°55.341 7.7 318 6 102060 38
2012-01-24 06:12 51°14.355 2°55.197 7.7 322 6 102050 37
2012-01-24 06:13 51°14.501 2°55.047 11.4 321 6 102040 39
2012-01-24 06:14 51°14.666 2°54.898 9.7 31 6 102040 38
2012-01-24 06:15 51°14.852 2°54.807 8 35 6 102040 39
2012-01-24 06:16 51°15.037 2°54.739 7.9 36 6.1 102040 39
2012-01-24 06:17 51°15.215 2°54.631 9.5 31 6.1 102040 38
2012-01-24 06:18 51°15.384 2°54.461 9.4 319 6.1 102040 39
2012-01-24 06:19 51°15.554 2°54.285 9.5 318 6.1 102030 39
2012-01-24 06:20 51°15.725 2°54.117 7.8 321 6.1 102030 38
2012-01-24 06:21 51°15.878 2°53.903 8.2 322 6.1 102030 38
2012-01-24 06:22 51°16.035 2°53.689 9.1 317 6.1 102030 38
2012-01-24 06:23 51°16.206 2°53.512 8.9 319 6.1 102040 38
2012-01-24 06:24 51°16.372 2°53.316 11.6 319 6.1 102030 38
2012-01-24 06:25 51°16.531 2°53.105 8.1 320 6.1 102040 38
2012-01-24 06:26 51°16.702 2°52.932 9.4 321 6.1 102040 39
2012-01-24 06:27 51°16.871 2°52.76 10.2 320 6.1 102040 38
2012-01-24 06:28 51°17.049 2°52.621 10.8 318 6.1 102050 39
2012-01-24 06:29 51°17.225 2°52.473 10.2 317 6.1 102050 38
2012-01-24 06:30 51°17.411 2°52.365 9.2 315 6.1 102060 39
2012-01-24 06:31 51°17.604 2°52.313 8.2 37 6.1 102050 40
2012-01-24 06:32 51°17.795 2°52.291 8.9 36 6.1 102060 38
2012-01-24 06:33 51°17.987 2°52.276 8.2 35 6.1 102060 40
2012-01-24 06:34 51°18.18 2°52.236 9.5 32 6 102060 38
2012-01-24 06:35 51°18.373 2°52.224 9.4 32 6.1 102060 39
2012-01-24 06:36 51°18.568 2°52.208 8.9 33 6.1 102050 39
2012-01-24 06:37 51°18.762 2°52.193 8.1 36 6.1 102040 38
2012-01-24 06:38 51°18.957 2°52.153 7.6 37 6 102050 40
2012-01-24 06:39 51°19.151 2°52.117 10.2 30 6 102050 39
2012-01-24 06:40 51°19.345 2°52.092 7.7 35 6 102060 38
2012-01-24 06:41 51°19.536 2°52.044 8.9 38 6 102040 39
2012-01-24 06:42 51°19.728 2°52.022 7.4 34 6 102060 40
2012-01-24 06:43 51°19.92 2°51.976 8.4 36 6 102050 39
2012-01-24 06:44 51°20.113 2°51.923 7.6 38 6 102050 37
2012-01-24 06:45 51°20.307 2°51.891 7.2 38 6 102050 37
2012-01-24 06:46 51°20.501 2°51.867 9.4 30 6 102060 38
2012-01-24 06:47 51°20.695 2°51.829 10 36 6 102050 39
2012-01-24 06:48 51°20.89 2°51.776 10.2 34 6 102050 38
2012-01-24 06:49 51°21.087 2°51.732 9.8 34 6 102050 38
2012-01-24 06:50 51°21.282 2°51.693 7 31 6 102050 39
2012-01-24 06:51 51°21.48 2°51.673 7.6 38 6 102060 38
2012-01-24 06:52 51°21.679 2°51.635 9.5 34 6 102060 39
2012-01-24 06:53 51°21.878 2°51.624 9.1 29 6 102050 38
2012-01-24 06:54 51°22.076 2°51.632 7.9 37 5.9 102050 40
2012-01-24 06:55 51°22.275 2°51.637 7.3 36 5.9 102050 40
2012-01-24 06:56 51°22.474 2°51.618 8.6 33 5.9 102050 37
2012-01-24 06:57 51°22.667 2°51.619 7.2 37 6 102050 38
2012-01-24 06:58 51°22.861 2°51.608 7.9 35 6 102040 39
2012-01-24 06:59 51°23.056 2°51.606 10.1 31 5.9 102040 39
2012-01-24 07:00 51°23.251 2°51.608 7.8 234 5.9 102050 36
2012-01-24 07:01 51°23.447 2°51.616 7.6 33 5.9 102050 37
2012-01-24 07:02 51°23.644 2°51.609 8.3 33 6 102070 39
2012-01-24 07:03 51°23.84 2°51.599 7.5 236 6 102060 38
2012-01-24 07:04 51°24.032 2°51.631 6.8 31 5.9 102050 37
2012-01-24 07:05 51°24.226 2°51.638 9.8 31 6 102060 39
2012-01-24 07:06 51°24.42 2°51.655 7.2 236 6 102050 38
2012-01-24 07:07 51°24.612 2°51.674 9 36 6 102050 39
2012-01-24 07:08 51°24.804 2°51.696 7 33 6 102060 39
2012-01-24 07:09 51°24.998 2°51.708 9.1 235 6 102070 39
2012-01-24 07:10 51°25.191 2°51.707 6.9 234 6 102060 38
2012-01-24 07:11 51°25.377 2°51.735 7.2 235 6 102070 39
2012-01-24 07:12 51°25.563 2°51.755 9.1 234 6 102070 39
2012-01-24 07:13 51°25.75 2°51.756 7.9 237 6 102070 39
2012-01-24 07:14 51°25.941 2°51.756 8.6 34 6 102060 39
2012-01-24 07:15 51°26.131 2°51.78 8.2 236 6.1 102070 38
2012-01-24 07:16 51°26.321 2°51.788 7.3 31 6.1 102060 38
2012-01-24 07:17 51°26.515 2°51.773 7.8 36 6 102060 38
2012-01-24 07:18 51°26.709 2°51.759 8.8 33 6 102070 39
2012-01-24 07:19 51°26.902 2°51.756 10.2 33 6 102060 39
2012-01-24 07:20 51°27.098 2°51.738 9.5 235 6 102080 38
2012-01-24 07:21 51°27.291 2°51.736 9.7 35 6 102070 38
2012-01-24 07:22 51°27.483 2°51.741 8.1 33 6 102080 39
2012-01-24 07:23 51°27.674 2°51.748 7.7 33 6.1 102080 39
2012-01-24 07:24 51°27.869 2°51.737 9.4 30 6 102060 39
2012-01-24 07:25 51°28.062 2°51.736 8.3 33 6 102070 37
2012-01-24 07:26 51°28.254 2°51.75 9.2 31 6.1 102060 37
2012-01-24 07:27 51°28.447 2°51.74 8.9 233 6.1 102080 37
2012-01-24 07:28 51°28.639 2°51.73 7.5 36 6.1 102070 37
2012-01-24 07:29 51°28.83 2°51.735 7.5 36 6.1 102070 39
2012-01-24 07:30 51°29.019 2°51.726 9.1 238 6.1 102080 37
2012-01-24 07:31 51°29.21 2°51.723 8.5 30 6.1 102060 38
2012-01-24 07:32 51°29.401 2°51.727 9.1 236 6.1 102060 37
2012-01-24 07:33 51°29.592 2°51.716 8.6 36 6 102080 39
2012-01-24 07:34 51°29.784 2°51.701 8.1 33 6 102070 38
2012-01-24 07:35 51°29.971 2°51.744 8 237 6 102070 37
2012-01-24 07:36 51°30.158 2°51.799 6.9 33 6 102070 37
2012-01-24 07:37 51°30.346 2°51.84 8.3 235 6 102080 38
2012-01-24 07:38 51°30.531 2°51.887 7.3 236 6 102070 37
2012-01-24 07:39 51°30.698 2°52.011 6.9 238 6.1 102080 39
2012-01-24 07:40 51°30.865 2°52.135 6 241 6 102080 38
2012-01-24 07:41 51°31.031 2°52.262 6.3 243 6 102080 38
2012-01-24 07:42 51°31.176 2°52.407 5.5 250 6.1 102080 38
2012-01-24 07:43 51°31.23 2°52.487 4.4 269 6.1 102090 39
2012-01-24 07:44 51°31.219 2°52.488 3.1 32 6.2 102090 38
2012-01-24 07:45 51°31.201 2°52.475 5.3 31 6.4 102090 38
2012-01-24 07:46 51°31.192 2°52.471 3.1 33 6.3 102100 37
2012-01-24 07:47 51°31.185 2°52.481 5.7 31 6.2 102090 36
2012-01-24 07:48 51°31.182 2°52.488 4.8 267 6.1 102080 35
2012-01-24 07:49 51°31.181 2°52.486 5.7 263 6.1 102080 36
2012-01-24 07:50 51°31.182 2°52.482 6.2 256 6.1 102090 38
2012-01-24 07:51 51°31.184 2°52.475 6 254 6.2 102080 39
2012-01-24 07:52 51°31.187 2°52.471 6.9 254 6.1 102090 36
2012-01-24 07:53 51°31.189 2°52.467 7.3 261 6.2 102090 37
2012-01-24 07:54 51°31.19 2°52.465 6.3 258 6.1 102100 38
2012-01-24 07:55 51°31.19 2°52.462 4.5 263 6.1 102090 38
2012-01-24 07:56 51°31.191 2°52.461 5.3 261 6.1 102100 36
2012-01-24 07:57 51°31.191 2°52.461 4.8 263 6.1 102090 38
2012-01-24 07:58 51°31.191 2°52.461 3.6 265 6.1 102090 37
2012-01-24 07:59 51°31.19 2°52.461 2.8 265 6 102090 37
2012-01-24 08:00 51°31.19 2°52.462 4.5 263 6 102090 39
2012-01-24 08:01 51°31.191 2°52.46 4.7 262 6 102090 38
2012-01-24 08:02 51°31.19 2°52.462 6.4 259 6.1 102090 39
2012-01-24 08:03 51°31.189 2°52.463 3.4 265 6.1 102090 40
2012-01-24 08:04 51°31.189 2°52.463 4.1 266 6.1 102100 38
2012-01-24 08:05 51°31.188 2°52.464 3.8 269 6 102090 39
2012-01-24 08:06 51°31.188 2°52.464 6.3 260 6 102090 39
2012-01-24 08:07 51°31.188 2°52.463 5.6 259 6.1 102100 38
2012-01-24 08:08 51°31.19 2°52.461 5.8 259 6.1 102090 38
2012-01-24 08:09 51°31.191 2°52.46 6.4 261 6.1 102090 37
2012-01-24 08:10 51°31.19 2°52.461 5.8 262 6 102090 38
2012-01-24 08:11 51°31.19 2°52.46 3.9 264 6.1 102090 37
2012-01-24 08:12 51°31.19 2°52.461 4.1 267 6.1 102080 38
2012-01-24 08:13 51°31.189 2°52.462 4.4 263 6.1 102090 40
2012-01-24 08:14 51°31.188 2°52.463 4.5 262 6.1 102100 39
2012-01-24 08:15 51°31.188 2°52.463 5 262 6.1 102090 37
2012-01-24 08:16 51°31.19 2°52.463 5 262 6 102090 37
2012-01-24 08:17 51°31.189 2°52.462 5.4 262 6.1 102090 39
2012-01-24 08:18 51°31.189 2°52.464 5.7 262 6.1 102100 39
2012-01-24 08:19 51°31.188 2°52.463 4.5 264 6.1 102090 38
2012-01-24 08:20 51°31.188 2°52.464 4.1 266 6.1 102090 38
2012-01-24 08:21 51°31.189 2°52.463 5.4 259 6.1 102090 39
2012-01-24 08:22 51°31.19 2°52.461 4.5 264 6.1 102090 40
2012-01-24 08:23 51°31.192 2°52.458 4.4 263 6.1 102080 37
2012-01-24 08:24 51°31.192 2°52.458 4.9 262 6.1 102090 37
2012-01-24 08:25 51°31.191 2°52.459 5.3 262 6.1 102090 37
2012-01-24 08:26 51°31.19 2°52.461 3.6 265 6.2 102090 38
2012-01-24 08:27 51°31.19 2°52.461 4.5 261 6.2 102090 37
2012-01-24 08:28 51°31.191 2°52.46 3.6 266 6.2 102100 36
2012-01-24 08:29 51°31.19 2°52.46 4.5 266 6.2 102100 39
2012-01-24 08:30 51°31.19 2°52.46 4.4 266 6.2 102100 38
2012-01-24 08:31 51°31.19 2°52.46 4.7 270 6.2 102100 37
2012-01-24 08:32 51°31.19 2°52.46 3.5 266 6.1 102100 39
2012-01-24 08:33 51°31.19 2°52.46 3.7 265 6.1 102100 39
2012-01-24 08:34 51°31.191 2°52.458 4.9 268 6.2 102100 37
2012-01-24 08:35 51°31.192 2°52.459 3.8 268 6.1 102100 39
2012-01-24 08:36 51°31.192 2°52.457 4.6 269 6.1 102100 36
2012-01-24 08:37 51°31.192 2°52.457 4.2 270 6.2 102100 40
2012-01-24 08:38 51°31.202 2°52.464 5 263 6.2 102100 39
2012-01-24 08:39 51°31.209 2°52.472 4.6 267 6.2 102100 38
2012-01-24 08:40 51°31.211 2°52.486 4.4 270 6.2 102100 37
2012-01-24 08:41 51°31.212 2°52.494 4.3 267 6.2 102100 36
2012-01-24 08:42 51°31.204 2°52.49 4.5 265 6.2 102100 38
2012-01-24 08:43 51°31.203 2°52.484 4.6 269 6.2 102110 39
2012-01-24 08:44 51°31.22 2°52.527 3.6 32 6.2 102100 36
2012-01-24 08:45 51°31.248 2°52.604 2.6 265 6.2 102110 38
2012-01-24 08:46 51°31.297 2°52.666 3.9 260 6.2 102110 39
2012-01-24 08:47 51°31.336 2°52.714 2.3 264 6.2 102110 39
2012-01-24 08:48 51°31.366 2°52.761 4.8 268 6.2 102110 36
2012-01-24 08:49 51°31.398 2°52.808 4.5 32 6.2 102110 41
2012-01-24 08:50 51°31.431 2°52.872 3.8 270 6.3 102100 39
2012-01-24 08:51 51°31.463 2°52.941 3.3 36 6.2 102100 37
2012-01-24 08:52 51°31.514 2°53.025 2.1 261 6.2 102100 39
2012-01-24 08:53 51°31.61 2°53.178 2.8 255 6.2 102100 36
2012-01-24 08:54 51°31.696 2°53.383 1.4 242 6.3 102100 38
2012-01-24 08:55 51°31.782 2°53.606 2.8 251 6.3 102090 37
2012-01-24 08:56 51°31.888 2°53.809 2.8 251 6.3 102100 36
2012-01-24 08:57 51°32.003 2°53.996 3.9 254 6.3 102100 36
2012-01-24 08:58 51°32.119 2°54.181 3.7 245 6.3 102100 39
2012-01-24 08:59 51°32.229 2°54.379 2.1 250 6.3 102090 36
2012-01-24 09:00 51°32.331 2°54.584 4 249 6.4 102090 36
2012-01-24 09:01 51°32.396 2°54.701 3.8 38 6.4 102090 37
2012-01-24 09:02 51°32.396 2°54.771 4 36 6.4 102100 39
2012-01-24 09:03 51°32.352 2°54.811 5.3 37 6.4 102090 36
2012-01-24 09:04 51°32.305 2°54.834 6 23 6.4 102080 36
2012-01-24 09:05 51°32.255 2°54.844 5.9 26 6.4 102080 37
2012-01-24 09:06 51°32.204 2°54.845 5.6 17 6.3 102080 37
2012-01-24 09:07 51°32.153 2°54.842 5.5 20 6.3 102090 36
2012-01-24 09:08 51°32.107 2°54.85 4.6 40 6.4 102090 38
2012-01-24 09:09 51°32.078 2°54.881 3.7 35 6.4 102090 37
2012-01-24 09:10 51°32.079 2°54.902 4.9 268 6.4 102090 36
2012-01-24 09:11 51°32.098 2°54.917 4 269 6.3 102100 35
2012-01-24 09:12 51°32.129 2°54.929 3.9 263 6.3 102080 38
2012-01-24 09:13 51°32.162 2°54.945 3.4 43 6.3 102090 36
2012-01-24 09:14 51°32.193 2°54.988 3.2 267 6.3 102080 36
2012-01-24 09:15 51°32.241 2°55.045 3.1 264 6.3 102090 39
2012-01-24 09:16 51°32.298 2°55.104 3.3 261 6.3 102090 36
2012-01-24 09:17 51°32.355 2°55.169 2.6 267 6.4 102080 39
2012-01-24 09:18 51°32.407 2°55.244 3.2 265 6.4 102080 37
2012-01-24 09:19 51°32.436 2°55.267 3.5 265 6.3 102080 38
2012-01-24 09:20 51°32.442 2°55.259 4.6 268 6.2 102070 39
2012-01-24 09:21 51°32.437 2°55.244 3.7 265 6.3 102080 39
2012-01-24 09:22 51°32.422 2°55.225 4.6 265 6.3 102070 40
2012-01-24 09:23 51°32.404 2°55.208 7 256 6.3 102070 37
2012-01-24 09:24 51°32.382 2°55.189 5.7 249 6.3 102080 37
2012-01-24 09:25 51°32.357 2°55.173 6.1 255 6.4 102070 38
2012-01-24 09:26 51°32.331 2°55.163 6 255 6.4 102080 37
2012-01-24 09:27 51°32.304 2°55.154 5.7 261 6.4 102080 39
2012-01-24 09:28 51°32.276 2°55.142 4.8 266 6.4 102070 39
2012-01-24 09:29 51°32.249 2°55.132 6.1 270 6.3 102070 39
2012-01-24 09:30 51°32.223 2°55.123 5.1 32 6.3 102070 37
2012-01-24 09:31 51°32.198 2°55.113 6.4 34 6.3 102070 37
2012-01-24 09:32 51°32.172 2°55.1 5.7 37 6.2 102080 38
2012-01-24 09:33 51°32.147 2°55.087 6 38 6.3 102070 38
2012-01-24 09:34 51°32.123 2°55.075 6.3 36 6.3 102070 38
2012-01-24 09:35 51°32.099 2°55.065 4.8 269 6.3 102080 40
2012-01-24 09:36 51°32.073 2°55.052 5.4 267 6.3 102080 39
2012-01-24 09:37 51°32.047 2°55.041 4.8 267 6.3 102080 39
2012-01-24 09:38 51°32.022 2°55.033 5.3 268 6.3 102080 38
2012-01-24 09:39 51°31.998 2°55.025 4 265 6.2 102070 40
2012-01-24 09:40 51°31.971 2°55.014 4.7 270 6.3 102070 38
2012-01-24 09:41 51°31.958 2°55.005 6.4 262 6.3 102080 40
2012-01-24 09:42 51°31.989 2°55 3.6 266 6.3 102080 38
2012-01-24 09:43 51°32.036 2°55.035 3.4 264 6.3 102080 38
2012-01-24 09:44 51°32.092 2°55.077 4 263 6.3 102070 40
2012-01-24 09:45 51°32.163 2°55.129 5.5 261 6.3 102080 40
2012-01-24 09:46 51°32.241 2°55.19 3.4 263 6.4 102080 37
2012-01-24 09:47 51°32.318 2°55.259 2.7 262 6.3 102090 40
2012-01-24 09:48 51°32.373 2°55.29 3.7 262 6.3 102080 37
2012-01-24 09:49 51°32.394 2°55.278 5.5 257 6.3 102080 40
2012-01-24 09:50 51°32.397 2°55.255 10.3 257 6.4 102070 38
2012-01-24 09:51 51°32.391 2°55.232 7.5 253 6.4 102080 38
2012-01-24 09:52 51°32.378 2°55.213 4.4 259 6.4 102070 38
2012-01-24 09:53 51°32.361 2°55.196 5.9 253 6.4 102070 37
2012-01-24 09:54 51°32.343 2°55.184 7.2 254 6.4 102080 39
2012-01-24 09:55 51°32.323 2°55.176 6.6 259 6.4 102070 38
2012-01-24 09:56 51°32.302 2°55.169 4.9 266 6.4 102070 40
2012-01-24 09:57 51°32.28 2°55.162 5.7 262 6.5 102070 38
2012-01-24 09:58 51°32.254 2°55.154 6.4 267 6.5 102070 39
2012-01-24 09:59 51°32.23 2°55.149 5.5 268 6.4 102070 37
2012-01-24 10:00 51°32.204 2°55.145 5.1 267 6.4 102070 40
2012-01-24 10:01 51°32.178 2°55.141 6.8 270 6.4 102080 38
2012-01-24 10:02 51°32.153 2°55.137 5.7 270 6.4 102070 39
2012-01-24 10:03 51°32.128 2°55.131 5.1 269 6.4 102070 39
2012-01-24 10:04 51°32.105 2°55.129 5 269 6.4 102070 38
2012-01-24 10:05 51°32.082 2°55.125 4.2 265 6.4 102070 40
2012-01-24 10:06 51°32.058 2°55.123 3.8 266 6.4 102080 39
2012-01-24 10:07 51°32.039 2°55.119 6.4 273 6.4 102070 37
2012-01-24 10:08 51°32.024 2°55.116 6.5 19 6.4 102080 38
2012-01-24 10:09 51°32.031 2°55.127 3.8 265 6.4 102070 37
2012-01-24 10:10 51°32.061 2°55.112 6.8 21 6.3 102070 37
2012-01-24 10:11 51°32.073 2°55.053 6.8 37 6.4 102050 38
2012-01-24 10:12 51°32.053 2°54.984 6.1 334 6.4 102070 39
2012-01-24 10:13 51°32.006 2°54.943 5.4 6 6.4 102070 39
2012-01-24 10:14 51°31.959 2°54.936 6.5 13 6.5 102070 39
2012-01-24 10:15 51°31.911 2°54.942 5.3 25 6.4 102070 39
2012-01-24 10:16 51°31.876 2°54.996 2.7 22 6.4 102080 38
2012-01-24 10:17 51°31.889 2°55.04 3.7 264 6.4 102080 39
2012-01-24 10:18 51°31.928 2°55.074 4 30 6.4 102080 39
2012-01-24 10:19 51°31.974 2°55.142 2.7 25 6.4 102090 39
2012-01-24 10:20 51°32.021 2°55.224 3.1 265 6.5 102080 37
2012-01-24 10:21 51°32.081 2°55.268 4.8 262 6.5 102080 37
2012-01-24 10:22 51°32.144 2°55.301 2.8 265 6.5 102090 37
2012-01-24 10:23 51°32.21 2°55.326 4.8 262 6.5 102090 37
2012-01-24 10:24 51°32.276 2°55.356 4.9 260 6.5 102080 40
2012-01-24 10:25 51°32.325 2°55.387 5.2 263 6.5 102090 37
2012-01-24 10:26 51°32.345 2°55.393 4.2 267 6.5 102090 39
2012-01-24 10:27 51°32.349 2°55.395 5.7 263 6.5 102080 38
2012-01-24 10:28 51°32.344 2°55.395 4.4 264 6.5 102080 39
2012-01-24 10:29 51°32.333 2°55.393 5.2 262 6.5 102080 40
2012-01-24 10:30 51°32.318 2°55.391 4.9 262 6.5 102080 40
2012-01-24 10:31 51°32.298 2°55.39 4.2 264 6.5 102090 38
2012-01-24 10:32 51°32.278 2°55.39 6.4 261 6.5 102080 40
2012-01-24 10:33 51°32.257 2°55.392 6.2 263 6.5 102090 39
2012-01-24 10:34 51°32.234 2°55.395 4.3 263 6.5 102090 37
2012-01-24 10:35 51°32.208 2°55.395 5 267 6.5 102090 37
2012-01-24 10:36 51°32.183 2°55.398 5.8 267 6.5 102090 37
2012-01-24 10:37 51°32.159 2°55.402 5.6 270 6.5 102080 38
2012-01-24 10:38 51°32.151 2°55.406 7.5 258 6.5 102090 37
2012-01-24 10:39 51°32.164 2°55.396 6.4 253 6.5 102090 38
2012-01-24 10:40 51°32.192 2°55.381 6.6 260 6.6 102090 38
2012-01-24 10:41 51°32.247 2°55.385 5.4 259 6.6 102090 38
2012-01-24 10:42 51°32.297 2°55.352 8.9 23 6.6 102080 39
2012-01-24 10:43 51°32.271 2°55.257 8.4 348 6.5 102080 39
2012-01-24 10:44 51°32.208 2°55.234 5.1 4 6.4 102070 39
2012-01-24 10:45 51°32.155 2°55.233 6.5 4 6.5 102080 38
2012-01-24 10:46 51°32.115 2°55.238 6.2 7 6.5 102070 39
2012-01-24 10:47 51°32.081 2°55.243 5.5 6 6.4 102080 36
2012-01-24 10:48 51°32.052 2°55.247 5.5 6 6.6 102080 38
2012-01-24 10:49 51°32.026 2°55.253 6.9 8 6.5 102090 40
2012-01-24 10:50 51°32 2°55.26 6.1 6 6.5 102080 39
2012-01-24 10:51 51°31.978 2°55.27 6.5 8 6.4 102080 37
2012-01-24 10:52 51°31.944 2°55.279 6.6 359 6.5 102080 39
2012-01-24 10:53 51°31.881 2°55.262 7.1 347 6.4 102070 38
2012-01-24 10:54 51°31.8 2°55.21 9.8 347 6.4 102080 39
2012-01-24 10:55 51°31.666 2°55.125 9.6 347 6.4 102070 37
2012-01-24 10:56 51°31.513 2°55.023 12.3 345 6.5 102070 39
2012-01-24 10:57 51°31.364 2°54.905 9.3 342 6.5 102070 38
2012-01-24 10:58 51°31.255 2°54.817 7.5 344 6.5 102080 38
2012-01-24 10:59 51°31.178 2°54.806 6.5 5 6.5 102080 37
2012-01-24 11:00 51°31.124 2°54.82 7.5 9 6.5 102080 39
2012-01-24 11:01 51°31.084 2°54.837 7.1 10 6.5 102080 37
2012-01-24 11:02 51°31.017 2°54.844 8.6 355 6.5 102080 38
2012-01-24 11:03 51°30.841 2°54.792 9.4 345 6.5 102060 37
2012-01-24 11:04 51°30.641 2°54.66 12.1 343 6.5 102060 37
2012-01-24 11:05 51°30.444 2°54.534 14.5 345 6.6 102060 39
2012-01-24 11:06 51°30.246 2°54.414 12.4 345 6.5 102060 39
2012-01-24 11:07 51°30.048 2°54.306 12.8 343 6.4 102050 37
2012-01-24 11:08 51°29.847 2°54.2 6.3 345 6.4 102050 38
2012-01-24 11:09 51°29.652 2°54.081 14.4 345 6.4 102040 38
2012-01-24 11:10 51°29.455 2°53.979 9.5 345 6.5 102050 38
2012-01-24 11:11 51°29.258 2°53.86 10.7 345 6.4 102040 36
2012-01-24 11:12 51°29.061 2°53.74 14.3 342 6.4 102050 38
2012-01-24 11:13 51°28.86 2°53.636 12.8 347 6.5 102050 38
2012-01-24 11:14 51°28.661 2°53.518 10.8 346 6.5 102050 38
2012-01-24 11:15 51°28.465 2°53.393 14.8 345 6.4 102050 39
2012-01-24 11:16 51°28.265 2°53.278 13.1 347 6.4 102050 38
2012-01-24 11:17 51°28.062 2°53.165 8.8 342 6.4 102060 39
2012-01-24 11:18 51°27.863 2°53.037 11 344 6.4 102050 39
2012-01-24 11:19 51°27.663 2°52.913 6.1 344 6.4 102050 37
2012-01-24 11:20 51°27.463 2°52.79 10 343 6.4 102050 38
2012-01-24 11:21 51°27.262 2°52.678 13.3 342 6.4 102050 38
2012-01-24 11:22 51°27.069 2°52.544 13.9 339 6.4 102040 39
2012-01-24 11:23 51°26.919 2°52.317 14.4 334 6.4 102040 38
2012-01-24 11:24 51°26.82 2°52.083 10.4 338 6.3 102050 39
2012-01-24 11:25 51°26.71 2°51.946 10.6 337 6.3 102060 40
2012-01-24 11:26 51°26.658 2°51.839 7.6 316 6.2 102060 37
2012-01-24 11:27 51°26.646 2°51.722 7.6 327 6.1 102040 36
2012-01-24 11:28 51°26.625 2°51.677 6 338 6.1 102060 37
2012-01-24 11:29 51°26.617 2°51.701 6.9 349 6.1 102060 37
2012-01-24 11:30 51°26.611 2°51.731 6.2 4 6 102050 39
2012-01-24 11:31 51°26.606 2°51.756 9 349 6 102050 37
2012-01-24 11:32 51°26.603 2°51.765 6.4 329 5.9 102070 38
2012-01-24 11:33 51°26.604 2°51.762 6.8 30 5.7 102050 37
2012-01-24 11:34 51°26.609 2°51.762 5.8 318 5.6 102060 38
2012-01-24 11:35 51°26.61 2°51.761 5.5 325 5.6 102060 37
2012-01-24 11:36 51°26.61 2°51.763 4.6 329 5.6 102050 37
2012-01-24 11:37 51°26.609 2°51.762 5.8 323 5.5 102060 38
2012-01-24 11:38 51°26.609 2°51.764 7.9 38 5.7 102050 38
2012-01-24 11:39 51°26.613 2°51.765 6.4 316 5.6 102040 37
2012-01-24 11:40 51°26.615 2°51.764 9.2 327 5.6 102050 39
2012-01-24 11:41 51°26.615 2°51.764 9.3 326 5.6 102050 40
2012-01-24 11:42 51°26.612 2°51.764 6.5 330 5.6 102060 38
2012-01-24 11:43 51°26.611 2°51.764 5.5 320 5.5 102060 39
2012-01-24 11:44 51°26.613 2°51.764 6.5 317 5.4 102060 39
2012-01-24 11:45 51°26.617 2°51.761 4.8 331 5.4 102060 38
2012-01-24 11:46 51°26.617 2°51.761 8.2 338 5.3 102060 37
2012-01-24 11:47 51°26.613 2°51.765 6 337 5.2 102060 40
2012-01-24 11:48 51°26.612 2°51.763 5.9 327 5.3 102060 37
2012-01-24 11:49 51°26.613 2°51.762 4.9 324 5.3 102050 40
2012-01-24 11:50 51°26.617 2°51.764 5.7 324 5.2 102060 37
2012-01-24 11:51 51°26.62 2°51.763 6.9 330 5.2 102060 37
2012-01-24 11:52 51°26.62 2°51.764 7 329 5.3 102040 39
2012-01-24 11:53 51°26.62 2°51.764 7.2 326 5.3 102050 38
2012-01-24 11:54 51°26.62 2°51.764 6 329 5.3 102050 39
2012-01-24 11:55 51°26.62 2°51.763 5.9 326 5.3 102050 40
2012-01-24 11:56 51°26.621 2°51.764 5.7 330 5.2 102050 37
2012-01-24 11:57 51°26.62 2°51.764 5.8 337 5.1 102050 39
2012-01-24 11:58 51°26.617 2°51.765 5.5 333 5.1 102050 39
2012-01-24 11:59 51°26.614 2°51.764 5.7 327 5 102060 36
2012-01-24 12:00 51°26.616 2°51.763 5.5 321 5 102050 37
2012-01-24 12:01 51°26.621 2°51.762 4.6 321 5 102040 36
2012-01-24 12:02 51°26.622 2°51.76 5.1 328 4.9 102040 36
2012-01-24 12:03 51°26.622 2°51.762 5.9 322 5 102050 39
2012-01-24 12:04 51°26.621 2°51.764 5.2 324 5 102050 40
2012-01-24 12:05 51°26.621 2°51.762 5.2 331 5 102050 38
2012-01-24 12:06 51°26.62 2°51.762 5.7 331 5 102050 36
2012-01-24 12:07 51°26.619 2°51.764 4.5 326 5 102040 36
2012-01-24 12:08 51°26.62 2°51.763 3.8 326 5 102050 39
2012-01-24 12:09 51°26.621 2°51.763 3.3 329 5 102040 36
2012-01-24 12:10 51°26.62 2°51.762 4.1 328 5.1 102050 38
2012-01-24 12:11 51°26.621 2°51.764 3.6 331 5.1 102050 37
2012-01-24 12:12 51°26.62 2°51.762 3.8 324 5.1 102040 39
2012-01-24 12:13 51°26.623 2°51.761 4.3 321 5.1 102040 37
2012-01-24 12:14 51°26.625 2°51.76 3.7 325 5.1 102030 38
2012-01-24 12:15 51°26.624 2°51.761 4.3 328 5.1 102040 36
2012-01-24 12:16 51°26.622 2°51.762 4.4 329 5.1 102040 37
2012-01-24 12:17 51°26.622 2°51.762 4.2 331 5.1 102030 37
2012-01-24 12:18 51°26.624 2°51.761 4.8 326 5.2 102030 38
2012-01-24 12:19 51°26.625 2°51.762 6.5 335 5.2 102030 38
2012-01-24 12:20 51°26.622 2°51.762 6.3 333 5.2 102030 38
2012-01-24 12:21 51°26.621 2°51.763 5.6 330 5.2 102040 40
2012-01-24 12:22 51°26.621 2°51.765 5.5 334 5.1 102030 39
2012-01-24 12:23 51°26.62 2°51.763 5.9 331 5.1 102030 37
2012-01-24 12:24 51°26.621 2°51.764 6 330 5 102030 37
2012-01-24 12:25 51°26.622 2°51.763 6.4 334 5 102020 38
2012-01-24 12:26 51°26.623 2°51.759 5.2 332 5 102020 40
2012-01-24 12:27 51°26.624 2°51.747 5.6 330 5.1 102030 40
2012-01-24 12:28 51°26.624 2°51.736 6 333 5.1 102020 37
2012-01-24 12:29 51°26.624 2°51.725 5.5 329 5 102010 40
2012-01-24 12:30 51°26.62 2°51.713 6.1 332 5 102020 40
2012-01-24 12:31 51°26.619 2°51.712 5.5 334 5.1 102030 36
2012-01-24 12:32 51°26.622 2°51.729 5 340 5.1 102020 41
2012-01-24 12:33 51°26.625 2°51.757 5.6 333 5.2 102020 38
2012-01-24 12:34 51°26.624 2°51.772 5.9 336 5.1 102020 40
2012-01-24 12:35 51°26.541 2°51.762 7.1 350 5.1 102010 39
2012-01-24 12:36 51°26.369 2°51.789 7.2 344 4.9 102000 39
2012-01-24 12:37 51°26.187 2°51.804 9.7 344 4.9 102010 38
2012-01-24 12:38 51°26.004 2°51.796 10.7 340 4.9 102010 39
2012-01-24 12:39 51°25.82 2°51.793 9 342 4.8 102010 37
2012-01-24 12:40 51°25.633 2°51.801 9.7 339 4.8 102020 37
2012-01-24 12:41 51°25.451 2°51.81 8.4 342 4.8 102010 38
2012-01-24 12:42 51°25.272 2°51.8 7.8 341 4.8 102010 37
2012-01-24 12:43 51°25.09 2°51.797 7.4 340 4.8 102010 38
2012-01-24 12:44 51°24.906 2°51.806 7.5 342 4.8 102000 37
2012-01-24 12:45 51°24.722 2°51.813 7.8 341 4.8 102000 40
2012-01-24 12:46 51°24.537 2°51.827 8.5 341 4.9 102000 37
2012-01-24 12:47 51°24.351 2°51.834 8.7 343 4.9 102000 38
2012-01-24 12:48 51°24.166 2°51.833 8.6 346 5 101990 40
2012-01-24 12:49 51°23.98 2°51.838 7.4 341 4.9 102000 39
2012-01-24 12:50 51°23.793 2°51.836 7.9 343 5 102000 40
2012-01-24 12:51 51°23.606 2°51.85 8.5 339 4.9 102000 38
2012-01-24 12:52 51°23.418 2°51.861 9 344 4.9 102000 39
2012-01-24 12:53 51°23.231 2°51.874 9.4 342 4.9 102000 40
2012-01-24 12:54 51°23.046 2°51.874 8.4 340 4.9 102000 40
2012-01-24 12:55 51°22.869 2°51.883 7.5 341 4.8 102000 38
2012-01-24 12:56 51°22.694 2°51.891 9.1 336 4.8 102000 38
2012-01-24 12:57 51°22.519 2°51.9 7 336 4.8 102000 38
2012-01-24 12:58 51°22.342 2°51.918 8.2 340 4.8 102000 39
2012-01-24 12:59 51°22.166 2°51.926 7 340 4.9 102000 38
2012-01-24 13:00 51°21.99 2°51.924 8 340 4.9 102000 38
2012-01-24 13:01 51°21.812 2°51.939 6.5 339 4.8 102000 39
2012-01-24 13:02 51°21.633 2°51.956 8.5 340 4.8 102000 38
2012-01-24 13:03 51°21.454 2°51.95 8.9 336 4.8 101990 39
2012-01-24 13:04 51°21.275 2°51.942 7.6 339 4.8 101990 40
2012-01-24 13:05 51°21.093 2°51.951 6.9 339 4.7 101990 40
2012-01-24 13:06 51°20.911 2°51.972 7.4 334 4.7 101990 37
2012-01-24 13:07 51°20.727 2°51.979 9.3 336 4.7 101990 38
2012-01-24 13:08 51°20.545 2°51.965 6.7 336 4.7 102000 40
2012-01-24 13:09 51°20.361 2°51.979 6.7 338 4.8 101990 40
2012-01-24 13:10 51°20.176 2°51.979 9.5 335 4.8 101990 38
2012-01-24 13:11 51°19.996 2°51.977 8 329 4.8 101990 38
2012-01-24 13:12 51°19.817 2°52.005 11.7 329 4.7 101990 39
2012-01-24 13:13 51°19.637 2°52.041 9.3 332 4.7 101980 39
2012-01-24 13:14 51°19.458 2°52.073 10 328 4.7 101980 40
2012-01-24 13:15 51°19.281 2°52.085 9.2 328 4.6 101970 38
2012-01-24 13:16 51°19.104 2°52.114 10 330 4.6 101980 39
2012-01-24 13:17 51°18.925 2°52.153 10.1 332 4.5 101970 39
2012-01-24 13:18 51°18.744 2°52.163 9.9 328 4.5 101970 39
2012-01-24 13:19 51°18.558 2°52.162 7.9 328 4.5 101970 39
2012-01-24 13:20 51°18.374 2°52.185 8.5 330 4.6 101970 40
2012-01-24 13:21 51°18.189 2°52.206 9.3 327 4.5 101970 39
2012-01-24 13:22 51°18.003 2°52.241 7.7 329 4.5 101970 39
2012-01-24 13:23 51°17.822 2°52.271 8.1 330 4.5 101970 39
2012-01-24 13:24 51°17.643 2°52.352 7.9 331 4.5 101970 38
2012-01-24 13:25 51°17.462 2°52.44 10 332 4.5 101970 38
2012-01-24 13:26 51°17.281 2°52.527 8.6 334 4.6 101960 39
2012-01-24 13:27 51°17.106 2°52.667 9.1 334 4.5 101960 37
2012-01-24 13:28 51°16.926 2°52.78 7.3 331 4.5 101970 38
2012-01-24 13:29 51°16.746 2°52.896 9.2 334 4.6 101970 39
2012-01-24 13:30 51°16.564 2°53.02 7.9 330 4.6 101960 39
2012-01-24 13:31 51°16.379 2°53.127 9.9 331 4.5 101970 37
2012-01-24 13:32 51°16.193 2°53.255 9.7 332 4.6 101960 38
2012-01-24 13:33 51°16.005 2°53.364 7.1 332 4.7 101960 39
2012-01-24 13:34 51°15.825 2°53.519 8.9 332 4.7 101960 39
2012-01-24 13:35 51°15.648 2°53.679 9.3 336 4.7 101950 39
2012-01-24 13:36 51°15.481 2°53.852 8 336 4.8 101940 39
2012-01-24 13:37 51°15.325 2°54.054 6.7 337 4.8 101950 40
2012-01-24 13:38 51°15.169 2°54.258 9.2 344 4.8 101950 40
2012-01-24 13:39 51°15.016 2°54.47 9.8 341 4.8 101940 38
2012-01-24 13:40 51°14.862 2°54.676 10.8 340 4.7 101940 39
2012-01-24 13:41 51°14.704 2°54.874 8.9 340 4.7 101940 40
2012-01-24 13:42 51°14.54 2°55.049 9.5 337 4.7 101950 39
2012-01-24 13:43 51°14.374 2°55.197 5.9 337 4.7 101930 40
2012-01-24 13:44 51°14.262 2°55.297 6 341 4.6 101950 40
2012-01-24 13:45 51°14.162 2°55.38 5.6 336 4.6 101950 39
2012-01-24 13:46 51°14.048 2°55.468 6.9 333 4.6 101950 38
2012-01-24 13:47 51°13.931 2°55.55 6.3 339 4.5 101940 38
2012-01-24 13:48 51°13.83 2°55.625 5.5 342 4.6 101950 37
2012-01-24 13:49 51°13.753 2°55.726 5 340 4.5 101960 38
2012-01-24 13:50 51°13.689 2°55.846 3 342 4.5 101960 38
2012-01-24 13:51 51°13.65 2°55.947 2.9 353 4.5 101960 36
2012-01-24 13:52 51°13.638 2°56.014 1.1 358 4.5 101960 40
2012-01-24 13:53 51°13.636 2°56.019 0.6 6 4.5 101960 37
2012-01-24 14:51 51°13.636 2°56.019 2.3 5 4.4 101940 38
2012-01-24 14:52 51°13.634 2°56.017 2.4 10 4.4 101940 38
2012-01-24 14:53 51°13.635 2°56.016 1.4 2 4.4 101930 38
2012-01-24 14:54 51°13.635 2°56.016 2.5 -999 4.4 101930 38
2012-01-24 14:55 51°13.637 2°56.018 3.3 347 4.5 101930 38
2012-01-24 14:56 51°13.638 2°56.018 4.3 349 4.5 101930 37
2012-01-24 14:57 51°13.638 2°56.018 3.4 11 4.4 101930 38
2012-01-24 14:58 51°13.637 2°56.018 3 344 4.4 101920 41
2012-01-24 14:59 51°13.637 2°56.019 2.6 353 4.4 101920 41